Shiyan 31

operational
NORAD ID: 65945 Int'l Des: 2025-227 Owner: CAST Country: CN
LEOCIRCULARPOLAR

About Shiyan 31

Description loading...

Live Position

Loading 3D Globe...

Upcoming Passes

Altitude History

Altitude vs Time

uPlot chart will show altitude changes over time

Two-Line Element Set

1 65945U 25227A 25287.90884361 .00006751 00000-0 31153-3 0 9995
2 65945 80.0018 99.9478 0011182 264.1049 95.8903 15.20070996 231
Epoch: Oct 14, 2025 • Age: 21 hours

Current Status

Altitude 510.1 km
Velocity 7.61 km/s
Sub-Earth Point 7.93°N, 159.91°E
Launch Date Oct 13, 2025
Age 2 days
Type other

Technical Details

Classification Payload
Mass 1000.00 kg
Dry Mass 1000.00 kg
Total Mass 1000.00 kg
Length 1.50 m
Diameter 1.00 m
Span 5.00 m
Shape Box+2 pan
Manufacturer CAST
Bus Type SY30
Phase Status In Orbit
Owner/State CAST/CN

Large Constellations

Loading constellations...